Weather History for Aurora, NE

Change the Weather History Date:

Monday, December 9, 2013

  Actual Average Record
Temperature  
Mean Temperature 4 °F -  
Max Temperature 16 °F 38 °F 65 °F (1984)
Min Temperature -7 °F 17 °F -8 °F (1978)
Degree Days  
Heating Degree Days 61    
Moisture  
Dew Point -1 °F    
Average Humidity 71    
Maximum Humidity 78    
Minimum Humidity 62    
Precipitation  
Precipitation 0.00 in - - ()
Sea Level Pressure  
Sea Level Pressure 30.18 in    
Wind  
Wind Speed 11 mph (WSW)    
Max Wind Speed 23 mph    
Max Gust Speed 28 mph    
Visibility 10 miles    
Events      
Averages and records for this station are not official NWS values.
T = Trace of Precipitation, MM = Missing Value Source: NWS Daily Summary

Daily Weather History Graph

Daily Weather History Graph

Search for Another Location

Airport:

Trip Planner

Search our weather history database for the weather conditions in past years. The results will help you decide how hot, cold, wet, or windy it might be!

Date:

Astronomy

Dec. 09, 2013 Rise Set
Actual Time 7:44 AM CST 5:03 PM CST
Civil Twilight 7:14 AM CST 5:34 PM CST
Nautical Twilight 6:39 AM CST 6:09 PM CST
Astronomical Twilight 6:06 AM CST 6:42 PM CST
Moon 12:36 PM CST (12/9) No Moon Set
Length of Visible Light 10h 20m
Length of Day
9h 18m
Waxing Crescent, 51% of the Moon is Illuminated
Dec 9
Waxing Crescent
Dec 17
Full
Dec 25
Last Quarter
Jan 1
New
Jan 7
First Quarter

Hourly Weather History & Observations

Time (CST) Temp. Windchill Dew Point Humidity Pressure Visibility Wind Dir Wind Speed Gust Speed Precip Events Conditions
12:15 AM 4.5 °F -13.0 °F -1.1 °F 78% 30.15 in 10.0 mi NW 13.8 mph - N/A   Clear
12:35 AM 4.1 °F -13.4 °F -2.2 °F 75% 30.16 in 10.0 mi NW 13.8 mph - N/A   Clear
1:15 AM 3.0 °F -13.3 °F -4.9 °F 70% 30.15 in 10.0 mi NW 11.5 mph - N/A   Clear
1:35 AM 3.0 °F -13.3 °F -5.1 °F 69% 30.15 in 10.0 mi NW 11.5 mph - N/A   Clear
1:55 AM 1.4 °F -15.3 °F -6.5 °F 69% 30.15 in 10.0 mi NW 11.5 mph - N/A   Clear
2:15 AM 1.4 °F -15.3 °F -6.3 °F 70% 30.16 in 10.0 mi NW 11.5 mph - N/A   Clear
2:35 AM -0.4 °F -14.7 °F -7.8 °F 71% 30.17 in 10.0 mi WNW 8.1 mph - N/A   Clear
2:55 AM -0.6 °F -16.0 °F -8.0 °F 71% 30.17 in 10.0 mi WNW 9.2 mph - N/A   Clear
3:15 AM -1.3 °F -15.7 °F -8.5 °F 72% 30.18 in 10.0 mi WNW 8.1 mph - N/A   Clear
3:35 AM -1.7 °F -16.2 °F -8.7 °F 72% 30.19 in 10.0 mi WNW 8.1 mph - N/A   Clear
3:55 AM -3.1 °F -16.7 °F -9.9 °F 73% 30.19 in 10.0 mi WNW 6.9 mph - N/A   Clear
4:35 AM -3.8 °F -21.9 °F -10.3 °F 74% 30.20 in 10.0 mi West 11.5 mph - N/A   Clear
4:55 AM -4.4 °F -20.6 °F -10.5 °F 75% 30.21 in 10.0 mi WNW 9.2 mph - N/A   Clear
5:15 AM -1.3 °F -16.8 °F -8.0 °F 73% 30.22 in 10.0 mi WNW 9.2 mph - N/A   Scattered Clouds
5:35 AM -0.0 °F -14.2 °F -7.2 °F 72% 30.22 in 10.0 mi NW 8.1 mph - N/A   Scattered Clouds
5:55 AM -2.6 °F -17.3 °F -9.2 °F 73% 30.23 in 10.0 mi WNW 8.1 mph - N/A   Clear
6:15 AM -3.6 °F -17.3 °F -9.8 °F 75% 30.24 in 10.0 mi WNW 6.9 mph - N/A   Clear
6:35 AM -2.4 °F -17.1 °F -9.0 °F 73% 30.24 in 10.0 mi NW 8.1 mph - N/A   Clear
6:55 AM -1.3 °F -17.8 °F -8.0 °F 73% 30.25 in 10.0 mi NW 10.4 mph - N/A   Clear
7:15 AM -3.3 °F -13.7 °F -9.8 °F 74% 30.26 in 10.0 mi West 4.6 mph - N/A   Scattered Clouds
7:35 AM -5.3 °F -19.3 °F -11.4 °F 75% 30.26 in 10.0 mi West 6.9 mph - N/A   Clear
7:55 AM -6.9 °F -21.2 °F -12.6 °F 76% 30.27 in 10.0 mi West 6.9 mph - N/A   Clear
8:15 AM -7.1 °F -21.4 °F -13.2 °F 75% 30.27 in 10.0 mi West 6.9 mph - N/A   Clear
8:35 AM -6.2 °F -22.8 °F -12.3 °F 75% 30.27 in 10.0 mi West 9.2 mph - N/A   Clear
8:55 AM -4.5 °F -18.4 °F -11.2 °F 73% 30.28 in 10.0 mi West 6.9 mph - N/A   Clear
9:15 AM -2.9 °F -11.2 °F -9.0 °F 75% 30.27 in 10.0 mi WNW 3.5 mph - N/A   Clear
9:35 AM -0.6 °F -8.5 °F -7.4 °F 73% 30.29 in 10.0 mi West 3.5 mph - N/A   Clear
9:37 AM -0.4 °F -10.4 °F -7.6 °F 72% 30.29 in 10.0 mi West 4.6 mph - N/A   Clear
9:55 AM 0.3 °F -11.2 °F -6.9 °F 72% 30.29 in 10.0 mi WSW 5.8 mph - N/A   Clear
10:15 AM 2.7 °F -8.4 °F -4.9 °F 71% 30.28 in 10.0 mi WSW 5.8 mph - N/A   Clear
10:35 AM 4.6 °F -7.4 °F -3.5 °F 69% 30.30 in 10.0 mi SW 6.9 mph - N/A   Clear
10:55 AM 6.3 °F -4.1 °F -2.0 °F 69% 30.29 in 10.0 mi WSW 5.8 mph - N/A   Clear
11:15 AM 8.4 °F -4.9 °F -0.6 °F 67% 30.28 in 10.0 mi West 9.2 mph - N/A   Clear
11:35 AM 9.9 °F -2.2 °F 0.1 °F 65% 30.28 in 10.0 mi WSW 8.1 mph - N/A   Clear
11:55 AM 10.4 °F -2.4 °F 0.1 °F 63% 30.26 in 10.0 mi WSW 9.2 mph - N/A   Clear
12:15 PM 11.1 °F -0.6 °F 1.6 °F 66% 30.25 in 10.0 mi SW 8.1 mph - N/A   Clear
12:35 PM 12.0 °F -0.4 °F 2.1 °F 65% 30.24 in 10.0 mi SW 9.2 mph - N/A   Clear
12:55 PM 11.7 °F 0.0 °F 2.3 °F 66% 30.21 in 10.0 mi SW 8.1 mph - N/A   Clear
1:15 PM 12.7 °F -0.4 °F 3.2 °F 66% 30.21 in 10.0 mi SW 10.4 mph - N/A   Clear
1:35 PM 13.5 °F -0.2 °F 4.1 °F 66% 30.19 in 10.0 mi SW 11.5 mph - N/A   Clear
1:55 PM 14.0 °F 0.5 °F 4.6 °F 66% 30.19 in 10.0 mi SW 11.5 mph - N/A   Clear
2:15 PM 14.4 °F 0.9 °F 4.6 °F 65% 30.18 in 10.0 mi SW 11.5 mph - N/A   Clear
2:35 PM 14.9 °F 0.9 °F 5.0 °F 65% 30.17 in 10.0 mi SW 12.7 mph - N/A   Clear
2:55 PM 15.4 °F 1.0 °F 4.6 °F 62% 30.16 in 10.0 mi SW 13.8 mph - N/A   Clear
3:15 PM 15.6 °F 1.2 °F 5.0 °F 63% 30.15 in 10.0 mi SW 13.8 mph - N/A   Clear
3:35 PM 14.2 °F 1.4 °F 5.0 °F 67% 30.15 in 10.0 mi SSW 10.4 mph - N/A   Clear
3:55 PM 13.8 °F -1.1 °F 4.5 °F 66% 30.15 in 10.0 mi SSW 13.8 mph 18.4 mph N/A   Clear
4:15 PM 13.1 °F -2.6 °F 4.5 °F 68% 30.15 in 10.0 mi SSW 15.0 mph 19.6 mph N/A   Clear
4:35 PM 12.4 °F -2.3 °F 3.9 °F 69% 30.15 in 10.0 mi SW 12.7 mph - N/A   Clear
4:55 PM 11.3 °F -5.5 °F 3.2 °F 70% 30.15 in 10.0 mi SW 16.1 mph - N/A   Clear
5:15 PM 10.8 °F -5.6 °F 3.2 °F 72% 30.15 in 10.0 mi SW 15.0 mph - N/A   Clear
5:35 PM 9.5 °F -6.6 °F 2.5 °F 73% 30.14 in 10.0 mi SW 13.8 mph - N/A   Clear
5:55 PM 9.0 °F -6.6 °F 2.3 °F 74% 30.13 in 10.0 mi SSW 12.7 mph - N/A   Clear
6:15 PM 9.0 °F -7.9 °F 2.1 °F 74% 30.13 in 10.0 mi SSW 15.0 mph - N/A   Clear
6:35 PM 9.5 °F -8.3 °F 2.3 °F 73% 30.12 in 10.0 mi SSW 17.3 mph - N/A   Clear
6:55 PM 9.5 °F -7.8 °F 2.5 °F 73% 30.12 in 10.0 mi SW 16.1 mph - N/A   Clear
7:15 PM 10.0 °F -7.6 °F 2.7 °F 72% 30.12 in 10.0 mi SW 17.3 mph 23.0 mph N/A   Clear
7:35 PM 10.4 °F -8.2 °F 2.5 °F 70% 30.11 in 10.0 mi SW 19.6 mph 25.3 mph N/A   Clear
7:55 PM 10.4 °F -9.5 °F 2.5 °F 70% 30.09 in 10.0 mi SW 23.0 mph 27.6 mph N/A   Clear
8:15 PM 9.9 °F -9.3 °F 2.1 °F 71% 30.09 in 10.0 mi SW 20.7 mph - N/A   Clear
8:35 PM 10.2 °F -8.9 °F 2.8 °F 72% 30.08 in 10.0 mi SW 20.7 mph - N/A   Clear
8:55 PM 12.7 °F -6.4 °F 4.8 °F 71% 30.08 in 10.0 mi SW 23.0 mph - N/A   Clear
9:15 PM 14.0 °F -3.9 °F 5.9 °F 70% 30.07 in 10.0 mi SW 20.7 mph - N/A   Clear
9:35 PM 14.5 °F -3.2 °F 6.8 °F 71% 30.07 in 10.0 mi SW 20.7 mph - N/A   Clear
9:55 PM 14.0 °F -1.4 °F 6.4 °F 72% 30.06 in 10.0 mi SW 15.0 mph - N/A   Clear
10:15 PM 15.3 °F -2.6 °F 7.2 °F 70% 30.06 in 10.0 mi SW 21.9 mph 25.3 mph N/A   Clear
10:35 PM 15.8 °F -1.5 °F 7.3 °F 69% 30.05 in 10.0 mi SW 20.7 mph 25.3 mph N/A   Clear
10:55 PM 15.8 °F -0.6 °F 7.5 °F 70% 30.05 in 10.0 mi WSW 18.4 mph 24.2 mph N/A   Clear
11:15 PM 15.8 °F -0.6 °F 7.5 °F 70% 30.06 in 10.0 mi WSW 18.4 mph 25.3 mph N/A   Clear
11:35 PM 15.8 °F 0.9 °F 7.7 °F 70% 30.06 in 10.0 mi WSW 15.0 mph - N/A   Clear
11:55 PM 16.2 °F 0.8 °F 8.1 °F 70% 30.05 in 10.0 mi WSW 16.1 mph - N/A   Clear